Location: Mercogliano
(40.9167°N, 14.7333°E)
Time: 13:43:20
(UTC+00:00)

Meteor 1-12 Rocket - Pass Details

Date: 18 September 2020
Orbit: 854 x 927 km, 81.2° (Epoch: 29 October)

Event Time Altitude Azimuth Distance (km) Brightness Sun altitude
Rises 18:04:55 0° 174° (S) 3,542 7.2 -12.1°
Reaches altitude 10° 18:07:26 10° 169° (S) 2,597 6.5 -12.6°
Maximum altitude 18:13:11 53° 94° (E) 1,097 4.4 -13.7°
Drops below altitude 10° 18:18:51 10° 19° (NNE) 2,569 6.7 -14.7°
Sets 18:21:20 0° 15° (NNE) 3,501 7.4 -15.1°
